| time (UTC) | temp F | wind direction | speed MPH | gust MPH | rain 1hr in | rain 24hr in | rain mn in | humidity % | barometer mb |
| 20260506211336 | 45 | 147 | 0.0 | 0.0 | 0.00 | 0.91 | 0.18 | 95 | 1012.3 |
| 20260506210846 | 45 | 147 | 0.0 | 0.0 | 0.00 | 0.91 | 0.18 | 95 | 1012.3 |
| 20260506210336 | 45 | 147 | 0.0 | 0.0 | 0.00 | 0.91 | 0.18 | 95 | 1012.4 |
| 20260506205846 | 45 | 147 | 0.0 | 0.0 | 0.00 | 0.91 | 0.18 | 95 | 1012.3 |
| 20260506205337 | 45 | 147 | 0.0 | 0.0 | 0.00 | 0.91 | 0.18 | 95 | 1012.3 |
| 20260506204846 | 45 | 147 | 0.0 | 0.0 | 0.00 | 0.91 | 0.18 | 95 | 1012.3 |
| 20260506204353 | 45 | 147 | 0.0 | 0.0 | 0.00 | 0.91 | 0.18 | 95 | 1012.3 |
| 20260506203842 | 45 | 147 | 0.0 | 0.0 | 0.00 | 0.91 | 0.18 | 94 | 1012.2 |
| 20260506202846 | 45 | 147 | 0.0 | 0.0 | 0.00 | 0.91 | 0.18 | 94 | 1012.1 |
| 20260506202335 | 45 | 147 | 0.0 | 0.0 | 0.00 | 0.91 | 0.18 | 94 | 1012.0 |
| 20260506201844 | 46 | 147 | 0.0 | 0.0 | 0.00 | 0.91 | 0.18 | 94 | 1012.0 |
| 20260506201353 | 46 | 147 | 0.0 | 0.0 | 0.00 | 0.91 | 0.18 | 94 | 1011.8 |
| 20260506200841 | 46 | 147 | 0.0 | 0.0 | 0.00 | 0.91 | 0.18 | 94 | 1011.7 |
| 20260506200349 | 46 | 147 | 0.0 | 0.0 | 0.00 | 0.91 | 0.18 | 94 | 1011.7 |
| 20260506195839 | 46 | 147 | 0.0 | 0.0 | 0.00 | 0.91 | 0.18 | 93 | 1011.6 |
| 20260506195350 | 46 | 147 | 0.0 | 0.0 | 0.00 | 0.91 | 0.18 | 93 | 1011.6 |
| 20260506194840 | 47 | 147 | 0.0 | 0.0 | 0.00 | 0.91 | 0.18 | 93 | 1011.4 |
| 20260506194335 | 47 | 147 | 0.0 | 0.0 | 0.00 | 0.91 | 0.18 | 92 | 1011.4 |
| 20260506193844 | 47 | 147 | 0.0 | 0.0 | 0.00 | 0.91 | 0.18 | 92 | 1011.3 |
| 20260506193334 | 47 | 147 | 0.0 | 0.0 | 0.00 | 0.91 | 0.18 | 92 | 1011.3 |
| 20260506192846 | 48 | 147 | 0.0 | 0.0 | 0.00 | 0.91 | 0.18 | 92 | 1011.3 |
| 20260506192334 | 48 | 147 | 0.0 | 2.0 | 0.00 | 0.91 | 0.18 | 91 | 1011.2 |
| 20260506191844 | 48 | 147 | 0.0 | 2.0 | 0.00 | 0.91 | 0.18 | 91 | 1011.2 |
| 20260506191351 | 48 | 147 | 1.0 | 2.0 | 0.00 | 0.91 | 0.18 | 90 | 1011.2 |
| 20260506190839 | 49 | 147 | 1.0 | 4.0 | 0.00 | 0.91 | 0.18 | 89 | 1011.1 |
| 20260506190349 | 49 | 147 | 2.0 | 4.0 | 0.00 | 0.91 | 0.18 | 89 | 1011.0 |
| 20260506185842 | 50 | 147 | 2.0 | 4.0 | 0.00 | 0.91 | 0.18 | 89 | 1011.0 |
| 20260506185351 | 49 | 147 | 1.0 | 5.0 | 0.00 | 0.91 | 0.18 | 89 | 1011.0 |
| 20260506184842 | 49 | 153 | 2.0 | 4.0 | 0.00 | 0.91 | 0.18 | 89 | 1011.0 |
| 20260506184352 | 50 | 148 | 2.0 | 3.0 | 0.00 | 0.91 | 0.18 | 89 | 1011.0 |
| 20260506183841 | 50 | 141 | 2.0 | 3.0 | 0.00 | 0.91 | 0.18 | 87 | 1010.9 |
| 20260506183352 | 51 | 141 | 2.0 | 3.0 | 0.00 | 0.91 | 0.18 | 86 | 1010.8 |
| 20260506182840 | 51 | 146 | 1.0 | 4.0 | 0.00 | 0.91 | 0.18 | 85 | 1010.7 |
| 20260506182351 | 51 | 131 | 1.0 | 5.0 | 0.00 | 0.91 | 0.18 | 85 | 1010.6 |
| 20260506181844 | 51 | 163 | 2.0 | 5.0 | 0.00 | 0.91 | 0.18 | 85 | 1010.6 |
| 20260506181334 | 52 | 81 | 1.0 | 5.0 | 0.00 | 0.91 | 0.18 | 84 | 1010.7 |
| 20260506180845 | 52 | 160 | 2.0 | 4.0 | 0.00 | 0.91 | 0.18 | 84 | 1010.6 |
| 20260506180354 | 52 | 142 | 1.0 | 4.0 | 0.00 | 0.91 | 0.18 | 83 | 1010.5 |
| 20260506175843 | 53 | 141 | 2.0 | 5.0 | 0.00 | 0.91 | 0.18 | 82 | 1010.5 |
| 20260506175353 | 53 | 90 | 1.0 | 5.0 | 0.00 | 0.91 | 0.18 | 82 | 1010.5 |
| 20260506174841 | 53 | 152 | 1.0 | 4.0 | 0.00 | 0.91 | 0.18 | 81 | 1010.5 |
| 20260506174352 | 54 | 86 | 1.0 | 3.0 | 0.00 | 0.91 | 0.18 | 82 | 1010.5 |
| 20260506173842 | 53 | 142 | 0.0 | 4.0 | 0.00 | 0.91 | 0.18 | 83 | 1010.4 |
| 20260506173335 | 53 | 145 | 1.0 | 5.0 | 0.00 | 0.91 | 0.18 | 84 | 1010.3 |
| 20260506172844 | 53 | 153 | 0.0 | 5.0 | 0.00 | 0.91 | 0.18 | 84 | 1010.3 |
| 20260506172335 | 52 | 167 | 1.0 | 4.0 | 0.00 | 0.91 | 0.18 | 84 | 1010.3 |
| 20260506171845 | 52 | 169 | 1.0 | 2.0 | 0.00 | 0.91 | 0.18 | 85 | 1010.2 |
| 20260506171353 | 52 | 131 | 0.0 | 3.0 | 0.00 | 0.91 | 0.18 | 85 | 1010.2 |
| 20260506170842 | 52 | 131 | 1.0 | 3.0 | 0.00 | 0.91 | 0.18 | 85 | 1010.2 |
| 20260506170352 | 52 | 133 | 0.0 | 4.0 | 0.00 | 0.91 | 0.18 | 85 | 1010.1 |
| 20260506165842 | 52 | 155 | 1.0 | 6.0 | 0.00 | 0.91 | 0.18 | 85 | 1010.1 |
| 20260506165335 | 52 | 177 | 1.0 | 6.0 | 0.00 | 0.91 | 0.18 | 85 | 1010.1 |
| 20260506164847 | 52 | 171 | 1.0 | 3.0 | 0.00 | 0.91 | 0.18 | 85 | 1010.1 |
| 20260506164336 | 52 | 144 | 0.0 | 3.0 | 0.00 | 0.91 | 0.18 | 85 | 1010.1 |
| 20260506163846 | 52 | 143 | 0.0 | 4.0 | 0.00 | 0.91 | 0.18 | 85 | 1010.1 |
| 20260506163335 | 52 | 143 | 1.0 | 5.0 | 0.00 | 0.91 | 0.18 | 84 | 1010.3 |
| 20260506162847 | 52 | 179 | 2.0 | 6.0 | 0.00 | 0.91 | 0.18 | 83 | 1010.3 |
| 20260506162336 | 52 | 148 | 2.0 | 6.0 | 0.00 | 0.91 | 0.18 | 83 | 1010.2 |
| 20260506161846 | 52 | 146 | 1.0 | 4.0 | 0.00 | 0.91 | 0.18 | 84 | 1010.1 |
| 20260506161336 | 52 | 145 | 1.0 | 5.0 | 0.00 | 0.91 | 0.18 | 85 | 1010.2 |
| 20260506160850 | 52 | 186 | 2.0 | 5.0 | 0.00 | 0.91 | 0.18 | 84 | 1010.1 |
| 20260506160340 | 52 | 225 | 2.0 | 5.0 | 0.00 | 0.91 | 0.18 | 84 | 1010.1 |
| 20260506155850 | 52 | 186 | 1.0 | 3.0 | 0.00 | 0.91 | 0.18 | 84 | 1010.1 |
| 20260506155340 | 52 | 217 | 0.0 | 4.0 | 0.00 | 0.91 | 0.18 | 84 | 1010.1 |
| 20260506154851 | 52 | 150 | 1.0 | 4.0 | 0.00 | 0.91 | 0.18 | 84 | 1010.1 |
| 20260506154341 | 52 | 188 | 1.0 | 5.0 | 0.00 | 0.91 | 0.18 | 84 | 1010.1 |
| 20260506153852 | 52 | 204 | 2.0 | 5.0 | 0.00 | 0.91 | 0.18 | 85 | 1010.2 |
| 20260506153341 | 52 | 134 | 1.0 | 4.0 | 0.00 | 0.91 | 0.18 | 85 | 1010.2 |
| 20260506152835 | 52 | 165 | 2.0 | 4.0 | 0.00 | 0.91 | 0.18 | 85 | 1010.2 |
| 20260506152345 | 52 | 117 | 1.0 | 4.0 | 0.00 | 0.91 | 0.18 | 85 | 1010.2 |
| 20260506151835 | 52 | 161 | 1.0 | 8.0 | 0.00 | 0.91 | 0.18 | 85 | 1010.2 |
| 20260506151346 | 52 | 150 | 3.0 | 8.0 | 0.00 | 0.91 | 0.18 | 86 | 1010.1 |
| 20260506150836 | 52 | 106 | 1.0 | 5.0 | 0.00 | 0.91 | 0.18 | 87 | 1010.2 |
| 20260506150346 | 52 | 150 | 1.0 | 5.0 | 0.00 | 0.91 | 0.18 | 87 | 1010.2 |
| 20260506145835 | 52 | 146 | 0.0 | 3.0 | 0.00 | 0.91 | 0.18 | 88 | 1010.1 |
| 20260506145345 | 52 | 260 | 0.0 | 4.0 | 0.00 | 0.91 | 0.18 | 88 | 1010.1 |
| 20260506144935 | 52 | 134 | 1.0 | 5.0 | 0.00 | 0.91 | 0.18 | 88 | 1010.1 |
| 20260506144340 | 52 | 172 | 1.0 | 5.0 | 0.00 | 0.91 | 0.18 | 87 | 1010.1 |
| 20260506143834 | 52 | 147 | 0.0 | 4.0 | 0.00 | 0.91 | 0.18 | 88 | 1010.0 |
| 20260506143344 | 52 | 132 | 1.0 | 6.0 | 0.00 | 0.91 | 0.18 | 87 | 1010.1 |
| 20260506142854 | 52 | 124 | 2.0 | 7.0 | 0.00 | 0.91 | 0.18 | 86 | 1010.0 |
| 20260506142343 | 52 | 104 | 2.0 | 7.0 | 0.00 | 0.91 | 0.18 | 87 | 1010.0 |
| 20260506141853 | 52 | 138 | 2.0 | 5.0 | 0.00 | 0.91 | 0.18 | 87 | 1010.0 |
| 20260506141342 | 52 | 132 | 1.0 | 7.0 | 0.00 | 0.91 | 0.18 | 87 | 1010.0 |
| 20260506140852 | 52 | 143 | 2.0 | 7.0 | 0.00 | 0.91 | 0.18 | 87 | 1010.0 |
| 20260506140342 | 52 | 117 | 3.0 | 7.0 | 0.00 | 0.91 | 0.18 | 87 | 1009.9 |
| 20260506135851 | 52 | 148 | 1.0 | 6.0 | 0.00 | 0.91 | 0.18 | 87 | 1009.9 |
| 20260506135347 | 52 | 156 | 1.0 | 5.0 | 0.00 | 0.91 | 0.18 | 88 | 1009.9 |
| 20260506134933 | 52 | 158 | 2.0 | 7.0 | 0.00 | 0.91 | 0.18 | 88 | 1009.9 |
| 20260506134341 | 51 | 228 | 3.0 | 7.0 | 0.00 | 0.91 | 0.18 | 88 | 1009.9 |
| 20260506133851 | 51 | 323 | 0.0 | 7.0 | 0.00 | 0.91 | 0.18 | 90 | 1009.9 |
| 20260506133341 | 51 | 87 | 1.0 | 6.0 | 0.00 | 0.91 | 0.18 | 90 | 1009.8 |
| 20260506132850 | 51 | 108 | 1.0 | 7.0 | 0.00 | 0.91 | 0.18 | 91 | 1009.9 |
| 20260506132338 | 51 | 153 | 2.0 | 6.0 | 0.00 | 0.91 | 0.18 | 91 | 1009.8 |
| 20260506131848 | 51 | 151 | 2.0 | 6.0 | 0.00 | 0.91 | 0.18 | 92 | 1009.8 |
| 20260506131338 | 51 | 130 | 1.0 | 6.0 | 0.08 | 0.91 | 0.18 | 92 | 1009.8 |
| 20260506130848 | 50 | 146 | 3.0 | 6.0 | 0.16 | 0.91 | 0.18 | 92 | 1009.8 |
| 20260506130342 | 50 | 177 | 1.0 | 6.0 | 0.24 | 0.91 | 0.18 | 93 | 1009.9 |
| 20260506125851 | 50 | 121 | 1.0 | 6.0 | 0.28 | 0.91 | 0.18 | 93 | 1009.8 |
| 20260506125341 | 50 | 126 | 0.0 | 6.0 | 0.39 | 0.91 | 0.18 | 93 | 1009.9 |
| 20260506124851 | 50 | 104 | 1.0 | 6.0 | 0.47 | 0.91 | 0.18 | 93 | 1009.9 |
| 20260506124340 | 50 | 147 | 2.0 | 6.0 | 0.51 | 0.91 | 0.18 | 93 | 1009.8 |
| 20260506123851 | 50 | 146 | 0.0 | 6.0 | 0.55 | 0.91 | 0.18 | 93 | 1009.8 |
| 20260506123341 | 50 | 153 | 2.0 | 6.0 | 0.59 | 0.91 | 0.18 | 93 | 1009.7 |
| 20260506122851 | 50 | 144 | 1.0 | 5.0 | 0.63 | 0.91 | 0.18 | 93 | 1009.7 |
| 20260506122341 | 50 | 228 | 1.0 | 5.0 | 0.67 | 0.91 | 0.18 | 93 | 1009.6 |
| 20260506121835 | 50 | 229 | 2.0 | 8.0 | 0.71 | 0.91 | 0.18 | 93 | 1009.6 |
| 20260506121346 | 50 | 190 | 3.0 | 9.0 | 0.67 | 0.83 | 0.17 | 93 | 1009.6 |
| 20260506120854 | 50 | 160 | 2.0 | 6.0 | 0.63 | 0.75 | 0.15 | 93 | 1009.5 |
| 20260506120344 | 50 | 123 | 1.0 | 8.0 | 0.55 | 0.67 | 0.13 | 93 | 1009.5 |
| 20260506115853 | 50 | 171 | 2.0 | 8.0 | 0.51 | 0.63 | 0.13 | 93 | 1009.4 |
| 20260506115341 | 50 | 129 | 2.0 | 10.0 | 0.39 | 0.51 | 0.10 | 92 | 1009.5 |
| 20260506114851 | 50 | 272 | 3.0 | 10.0 | 0.31 | 0.43 | 0.09 | 91 | 1009.3 |
| 20260506114340 | 51 | 155 | 4.0 | 9.0 | 0.28 | 0.39 | 0.08 | 91 | 1009.3 |
| 20260506113834 | 51 | 199 | 3.0 | 11.0 | 0.24 | 0.35 | 0.07 | 91 | 1009.2 |
| 20260506113347 | 51 | 214 | 3.0 | 11.0 | 0.20 | 0.31 | 0.06 | 91 | 1009.1 |
| 20260506112835 | 52 | 296 | 4.0 | 11.0 | 0.16 | 0.28 | 0.06 | 92 | 1009.0 |
| 20260506112345 | 52 | 32 | 3.0 | 9.0 | 0.12 | 0.24 | 0.05 | 91 | 1008.8 |
| 20260506111834 | 52 | 210 | 4.0 | 11.0 | 0.08 | 0.20 | 0.04 | 90 | 1008.8 |
| 20260506111345 | 53 | 153 | 5.0 | 11.0 | 0.04 | 0.16 | 0.03 | 90 | 1008.8 |
| 20260506110853 | 53 | 129 | 3.0 | 8.0 | 0.00 | 0.12 | 0.02 | 89 | 1008.6 |
| 20260506110342 | 54 | 169 | 3.0 | 8.0 | 0.00 | 0.24 | 0.02 | 88 | 1008.5 |
| 20260506105851 | 54 | 136 | 2.0 | 8.0 | 0.00 | 0.24 | 0.02 | 88 | 1008.5 |
| 20260506105344 | 54 | 155 | 2.0 | 7.0 | 0.00 | 0.24 | 0.02 | 89 | 1008.5 |
| 20260506104835 | 55 | 217 | 1.0 | 5.0 | 0.00 | 0.24 | 0.02 | 88 | 1008.4 |
| 20260506104345 | 55 | 149 | 1.0 | 4.0 | 0.00 | 0.24 | 0.02 | 88 | 1008.4 |
| 20260506103836 | 55 | 60 | 1.0 | 4.0 | 0.00 | 0.24 | 0.02 | 87 | 1008.4 |
| 20260506103345 | 55 | 290 | 1.0 | 4.0 | 0.00 | 0.24 | 0.02 | 87 | 1008.4 |
| 20260506102836 | 55 | 115 | 1.0 | 4.0 | 0.00 | 0.24 | 0.02 | 87 | 1008.3 |
| 20260506102345 | 55 | 295 | 1.0 | 4.0 | 0.04 | 0.24 | 0.02 | 87 | 1008.3 |
| 20260506101851 | 55 | 303 | 1.0 | 3.0 | 0.04 | 0.24 | 0.02 | 88 | 1008.3 |
| 20260506101342 | 55 | 300 | 1.0 | 3.0 | 0.08 | 0.24 | 0.02 | 88 | 1008.2 |
| 20260506100836 | 55 | 167 | 0.0 | 3.0 | 0.08 | 0.24 | 0.02 | 89 | 1008.2 |
| 20260506100346 | 55 | 195 | 0.0 | 3.0 | 0.08 | 0.24 | 0.02 | 90 | 1008.2 |
| 20260506095835 | 54 | 317 | 0.0 | 3.0 | 0.12 | 0.24 | 0.02 | 90 | 1008.1 |
| 20260506095345 | 54 | 298 | 1.0 | 3.0 | 0.12 | 0.24 | 0.02 | 91 | 1008.0 |
| 20260506094836 | 54 | 308 | 1.0 | 3.0 | 0.12 | 0.24 | 0.02 | 90 | 1008.0 |
| 20260506094346 | 54 | 296 | 0.0 | 3.0 | 0.12 | 0.24 | 0.02 | 90 | 1008.1 |
| 20260506093836 | 54 | 295 | 0.0 | 2.0 | 0.12 | 0.24 | 0.02 | 91 | 1008.2 |
| 20260506093346 | 54 | 142 | 0.0 | 1.0 | 0.12 | 0.24 | 0.02 | 91 | 1008.2 |
| 20260506091349 | 53 | 137 | 0.0 | 1.0 | 0.04 | 0.16 | 0.01 | 92 | 1008.0 |
| 20260506090837 | 53 | 269 | 0.0 | 1.0 | 0.04 | 0.16 | 0.01 | 91 | 1008.0 |
| 20260506090349 | 53 | 269 | 0.0 | 1.0 | 0.04 | 0.16 | 0.01 | 91 | 1007.8 |
| 20260506085350 | 53 | 269 | 0.0 | 1.0 | 0.00 | 0.12 | 0.00 | 90 | 1007.8 |
| 20260506084840 | 53 | 269 | 0.0 | 1.0 | 0.00 | 0.12 | 0.00 | 90 | 1007.9 |
| 20260506084353 | 53 | 269 | 0.0 | 1.0 | 0.00 | 0.12 | 0.00 | 89 | 1007.8 |
| 20260506083843 | 53 | 269 | 0.0 | 1.0 | 0.00 | 0.12 | 0.00 | 89 | 1007.8 |
| 20260506083353 | 53 | 269 | 0.0 | 1.0 | 0.00 | 0.12 | 0.00 | 88 | 1007.8 |
| 20260506082841 | 54 | 153 | 0.0 | 0.0 | 0.00 | 0.12 | 0.00 | 88 | 1007.8 |
| 20260506082351 | 54 | 153 | 0.0 | 0.0 | 0.00 | 0.12 | 0.00 | 88 | 1007.8 |
| 20260506081841 | 54 | 153 | 0.0 | 0.0 | 0.00 | 0.12 | 0.00 | 87 | 1007.8 |
| 20260506081350 | 54 | 153 | 0.0 | 0.0 | 0.00 | 0.12 | 0.00 | 87 | 1007.7 |
| 20260506080840 | 54 | 153 | 0.0 | 0.0 | 0.00 | 0.12 | 0.00 | 88 | 1007.7 |
| 20260506080350 | 54 | 153 | 0.0 | 1.0 | 0.00 | 0.16 | 0.00 | 88 | 1007.7 |
| 20260506073352 | 53 | 153 | 0.0 | 0.0 | 0.00 | 0.16 | 0.00 | 89 | 1007.6 |
| 20260506072840 | 53 | 153 | 0.0 | 0.0 | 0.00 | 0.16 | 0.00 | 90 | 1007.6 |
| 20260506072351 | 53 | 153 | 0.0 | 0.0 | 0.00 | 0.16 | 0.00 | 90 | 1007.7 |
| 20260506071845 | 53 | 153 | 0.0 | 0.0 | 0.00 | 0.16 | 0.00 | 91 | 1007.7 |
| 20260506071335 | 52 | 153 | 0.0 | 0.0 | 0.00 | 0.16 | 0.00 | 92 | 1007.7 |
| 20260506070846 | 52 | 153 | 0.0 | 0.0 | 0.00 | 0.16 | 0.00 | 92 | 1007.8 |
| 20260506070335 | 52 | 153 | 0.0 | 0.0 | 0.00 | 0.20 | 0.00 | 93 | 1007.8 |
| 20260506062337 | 50 | 153 | 0.0 | 0.0 | 0.00 | 0.20 | 0.00 | 95 | 1007.7 |
| 20260506061848 | 50 | 152 | 0.0 | 0.0 | 0.00 | 0.20 | 0.00 | 95 | 1007.6 |
| 20260506061337 | 50 | 153 | 0.0 | 0.0 | 0.00 | 0.20 | 0.00 | 96 | 1007.6 |
| 20260506060847 | 49 | 153 | 0.0 | 0.0 | 0.00 | 0.20 | 0.00 | 96 | 1007.6 |
| 20260506060336 | 49 | 153 | 0.0 | 0.0 | 0.00 | 0.20 | 0.00 | 96 | 1007.7 |
| 20260506051349 | 48 | 153 | 0.0 | 0.0 | 0.00 | 0.20 | 0.00 | 96 | 1007.9 |
| 20260506050843 | 48 | 153 | 0.0 | 0.0 | 0.00 | 0.20 | 0.00 | 95 | 1007.9 |
| 20260506044851 | 47 | 153 | 0.0 | 0.0 | 0.00 | 0.20 | 0.00 | 95 | 1007.8 |
| 20260506044340 | 47 | 153 | 0.0 | 0.0 | 0.00 | 0.20 | 0.00 | 95 | 1007.8 |
| 20260506043850 | 47 | 153 | 0.0 | 0.0 | 0.00 | 0.20 | 0.00 | 95 | 1007.8 |
| 20260506043342 | 47 | 153 | 0.0 | 0.0 | 0.00 | 0.20 | 0.00 | 95 | 1007.8 |
| 20260506042835 | 48 | 153 | 0.0 | 1.0 | 0.00 | 0.20 | 0.00 | 95 | 1007.8 |
| 20260506042346 | 48 | 153 | 0.0 | 1.0 | 0.00 | 0.20 | 0.00 | 95 | 1007.7 |
| 20260506041836 | 48 | 153 | 0.0 | 1.0 | 0.00 | 0.20 | 0.00 | 94 | 1007.8 |
| 20260506041348 | 48 | 153 | 0.0 | 3.0 | 0.00 | 0.20 | 0.00 | 94 | 1007.8 |
| 20260506040837 | 48 | 149 | 2.0 | 3.0 | 0.00 | 0.20 | 0.00 | 93 | 1007.7 |
| 20260506040348 | 48 | 146 | 0.0 | 1.0 | 0.00 | 0.20 | 0.00 | 93 | 1007.7 |
| 20260506035838 | 49 | 146 | 0.0 | 0.0 | 0.00 | 0.20 | 0.00 | 93 | 1007.8 |
| 20260506035347 | 49 | 146 | 0.0 | 0.0 | 0.00 | 0.20 | 0.00 | 93 | 1007.8 |
| 20260506034840 | 49 | 146 | 0.0 | 1.0 | 0.00 | 0.20 | 0.00 | 93 | 1007.9 |
| 20260506034351 | 49 | 146 | 0.0 | 1.0 | 0.00 | 0.20 | 0.00 | 93 | 1008.0 |
| 20260506033842 | 49 | 146 | 0.0 | 1.0 | 0.00 | 0.20 | 0.00 | 93 | 1008.1 |
| 20260506033351 | 49 | 146 | 0.0 | 1.0 | 0.00 | 0.20 | 0.00 | 93 | 1008.1 |
| 20260506032840 | 49 | 146 | 0.0 | 1.0 | 0.00 | 0.20 | 0.00 | 94 | 1008.2 |
| 20260506032350 | 49 | 100 | 0.0 | 1.0 | 0.00 | 0.20 | 0.00 | 94 | 1008.2 |
| 20260506031840 | 49 | 167 | 0.0 | 1.0 | 0.00 | 0.20 | 0.00 | 94 | 1008.2 |
| 20260506031351 | 49 | 110 | 0.0 | 1.0 | 0.00 | 0.20 | 0.00 | 94 | 1008.3 |
| 20260506030840 | 49 | 110 | 0.0 | 1.0 | 0.00 | 0.20 | 0.00 | 94 | 1008.3 |
| 20260506030354 | 49 | 155 | 0.0 | 0.0 | 0.00 | 0.20 | 0.00 | 94 | 1008.3 |
| 20260506025844 | 49 | 107 | 0.0 | 1.0 | 0.00 | 0.20 | 0.00 | 94 | 1008.4 |
| 20260506025353 | 49 | 107 | 0.0 | 1.0 | 0.00 | 0.20 | 0.00 | 94 | 1008.5 |
| 20260506024843 | 49 | 124 | 0.0 | 1.0 | 0.00 | 0.20 | 0.00 | 94 | 1008.6 |
| 20260506024352 | 49 | 144 | 0.0 | 1.0 | 0.00 | 0.20 | 0.00 | 94 | 1008.6 |
| 20260506023840 | 49 | 144 | 0.0 | 0.0 | 0.00 | 0.20 | 0.00 | 94 | 1008.8 |
| 20260506023350 | 49 | 144 | 0.0 | 1.0 | 0.00 | 0.20 | 0.00 | 94 | 1008.8 |
| 20260506022839 | 49 | 144 | 0.0 | 1.0 | 0.00 | 0.20 | 0.00 | 94 | 1008.8 |
| 20260506022349 | 49 | 144 | 0.0 | 1.0 | 0.00 | 0.20 | 0.00 | 94 | 1008.8 |
| 20260506021843 | 49 | 144 | 0.0 | 3.0 | 0.00 | 0.20 | 0.00 | 94 | 1008.9 |
| 20260506021353 | 49 | 144 | 1.0 | 3.0 | 0.00 | 0.20 | 0.00 | 94 | 1008.8 |
| 20260506020843 | 49 | 144 | 0.0 | 1.0 | 0.00 | 0.20 | 0.00 | 94 | 1008.8 |
| 20260506020353 | 49 | 144 | 0.0 | 0.0 | 0.00 | 0.20 | 0.00 | 93 | 1008.8 |
| 20260506015843 | 49 | 144 | 0.0 | 0.0 | 0.00 | 0.20 | 0.00 | 93 | 1008.9 |
| 20260506015352 | 49 | 144 | 0.0 | 0.0 | 0.00 | 0.20 | 0.00 | 92 | 1008.9 |
| 20260506014840 | 50 | 144 | 0.0 | 0.0 | 0.00 | 0.20 | 0.00 | 92 | 1009.0 |
| 20260506014351 | 50 | 144 | 0.0 | 0.0 | 0.00 | 0.20 | 0.00 | 92 | 1009.1 |
| 20260506013846 | 50 | 144 | 0.0 | 0.0 | 0.00 | 0.20 | 0.00 | 92 | 1009.2 |
| 20260506013335 | 50 | 144 | 0.0 | 0.0 | 0.00 | 0.20 | 0.00 | 92 | 1009.3 |
| 20260506012847 | 50 | 144 | 0.0 | 1.0 | 0.00 | 0.20 | 0.00 | 92 | 1009.3 |
| 20260506012335 | 50 | 144 | 0.0 | 4.0 | 0.00 | 0.20 | 0.00 | 92 | 1009.5 |
| 20260506011848 | 50 | 144 | 0.0 | 4.0 | 0.00 | 0.20 | 0.00 | 93 | 1009.6 |
| 20260506011338 | 50 | 152 | 1.0 | 4.0 | 0.00 | 0.20 | 0.00 | 93 | 1009.7 |
| 20260506010848 | 50 | 153 | 2.0 | 4.0 | 0.00 | 0.20 | 0.00 | 93 | 1009.7 |
| 20260506010337 | 50 | 144 | 1.0 | 4.0 | 0.00 | 0.20 | 0.00 | 93 | 1009.7 |
| 20260506005845 | 50 | 144 | 1.0 | 4.0 | 0.00 | 0.20 | 0.00 | 94 | 1009.8 |
| 20260506005339 | 50 | 149 | 1.0 | 2.0 | 0.00 | 0.20 | 0.00 | 94 | 1009.7 |
| 20260506004850 | 49 | 132 | 0.0 | 1.0 | 0.00 | 0.20 | 0.00 | 93 | 1009.7 |
| 20260506004340 | 50 | 132 | 0.0 | 1.0 | 0.00 | 0.20 | 0.00 | 93 | 1009.8 |
| 20260506003850 | 50 | 132 | 0.0 | 1.0 | 0.00 | 0.20 | 0.00 | 93 | 1009.9 |
| 20260506003338 | 50 | 132 | 0.0 | 0.0 | 0.00 | 0.20 | 0.00 | 93 | 1009.9 |
| 20260506002848 | 50 | 132 | 0.0 | 2.0 | 0.00 | 0.20 | 0.00 | 93 | 1010.0 |
| 20260506002338 | 50 | 132 | 0.0 | 2.0 | 0.00 | 0.20 | 0.00 | 93 | 1010.1 |
| 20260506001848 | 50 | 134 | 1.0 | 1.0 | 0.00 | 0.20 | 0.00 | 93 | 1010.1 |
| 20260506001341 | 50 | 134 | 0.0 | 1.0 | 0.00 | 0.20 | 0.00 | 93 | 1010.0 |
| 20260506000851 | 50 | 134 | 0.0 | 0.0 | 0.00 | 0.20 | 0.00 | 93 | 1010.0 |
| 20260506000341 | 50 | 134 | 0.0 | 0.0 | 0.00 | 0.20 | 0.00 | 93 | 1010.0 |
| 20260505235850 | 50 | 134 | 0.0 | 1.0 | 0.00 | 0.20 | 0.00 | 93 | 1010.1 |
| 20260505235339 | 50 | 134 | 0.0 | 1.0 | 0.00 | 0.20 | 0.00 | 93 | 1010.1 |
| 20260505234850 | 50 | 134 | 0.0 | 1.0 | 0.00 | 0.20 | 0.00 | 93 | 1010.1 |
| 20260505234339 | 50 | 134 | 0.0 | 1.0 | 0.00 | 0.20 | 0.00 | 93 | 1010.1 |
| 20260505233849 | 50 | 134 | 0.0 | 1.0 | 0.00 | 0.20 | 0.00 | 93 | 1010.2 |
| 20260505233339 | 50 | 134 | 0.0 | 1.0 | 0.00 | 0.20 | 0.00 | 92 | 1010.3 |
| 20260505232853 | 50 | 134 | 0.0 | 1.0 | 0.00 | 0.20 | 0.00 | 92 | 1010.4 |
| 20260505232344 | 50 | 134 | 0.0 | 0.0 | 0.00 | 0.20 | 0.00 | 92 | 1010.5 |
| 20260505231853 | 50 | 134 | 0.0 | 0.0 | 0.00 | 0.20 | 0.00 | 91 | 1010.5 |
| 20260505231341 | 50 | 134 | 0.0 | 1.0 | 0.00 | 0.20 | 0.00 | 91 | 1010.5 |
| 20260505230852 | 50 | 134 | 0.0 | 1.0 | 0.00 | 0.20 | 0.00 | 91 | 1010.6 |
| 20260505230342 | 50 | 134 | 0.0 | 1.0 | 0.00 | 0.20 | 0.00 | 91 | 1010.6 |
| 20260505225852 | 50 | 134 | 0.0 | 1.0 | 0.00 | 0.20 | 0.00 | 91 | 1010.6 |
| 20260505225341 | 50 | 134 | 0.0 | 2.0 | 0.00 | 0.20 | 0.00 | 92 | 1010.7 |
| 20260505224835 | 50 | 134 | 0.0 | 1.0 | 0.00 | 0.20 | 0.00 | 91 | 1010.6 |
| 20260505224346 | 50 | 134 | 0.0 | 1.0 | 0.00 | 0.20 | 0.00 | 91 | 1010.6 |
| 20260505223835 | 50 | 134 | 0.0 | 1.0 | 0.00 | 0.20 | 0.00 | 90 | 1010.6 |
| 20260505223344 | 50 | 134 | 0.0 | 1.0 | 0.00 | 0.20 | 0.00 | 90 | 1010.6 |
| 20260505222834 | 50 | 134 | 0.0 | 1.0 | 0.00 | 0.20 | 0.00 | 90 | 1010.6 |
| 20260505222345 | 50 | 134 | 0.0 | 1.0 | 0.00 | 0.20 | 0.00 | 91 | 1010.6 |
| 20260505221834 | 50 | 134 | 0.0 | 0.0 | 0.00 | 0.20 | 0.00 | 91 | 1010.5 |
| 20260505221344 | 50 | 134 | 0.0 | 1.0 | 0.00 | 0.20 | 0.00 | 91 | 1010.6 |
| 20260505220853 | 50 | 134 | 0.0 | 1.0 | 0.00 | 0.20 | 0.00 | 91 | 1010.6 |
| 20260505220348 | 50 | 134 | 0.0 | 0.0 | 0.00 | 0.20 | 0.04 | 90 | 1010.6 |
| 20260505215836 | 51 | 134 | 0.0 | 0.0 | 0.00 | 0.20 | 0.04 | 89 | 1010.7 |
| 20260505215347 | 51 | 134 | 0.0 | 0.0 | 0.00 | 0.20 | 0.04 | 88 | 1010.7 |
| 20260505214837 | 52 | 134 | 0.0 | 0.0 | 0.00 | 0.20 | 0.04 | 86 | 1010.7 |
| 20260505214349 | 52 | 134 | 0.0 | 0.0 | 0.00 | 0.20 | 0.04 | 85 | 1010.6 |
| 20260505213837 | 53 | 134 | 0.0 | 1.0 | 0.00 | 0.20 | 0.04 | 84 | 1010.7 |
| 20260505213347 | 53 | 134 | 0.0 | 3.0 | 0.00 | 0.20 | 0.04 | 83 | 1010.7 |
| 20260505212835 | 53 | 134 | 0.0 | 3.0 | 0.00 | 0.20 | 0.04 | 83 | 1010.8 |
| 20260505211849 | 52 | 146 | 1.0 | 2.0 | 0.00 | 0.20 | 0.04 | 85 | 1010.8 |